Regional Weather Roundup
Issued by NWS New Orleans/Baton Rouge, LA

Home | Current Version | Previous Version | Text Only | Print | Product List | Glossary On
Versions: 1 2 3 4 5 6 7 8 9 10 11 12 13 14 15 16 17 18 19 20 21 22 23 24 25 26 27 28 29 30 31 32 33 34 35 36 37 38 39 40 41 42 43 44 45 46 47 48 49 50
000
ASUS44 KLIX 272011
RWRLIX
NEW ORLEANS REGIONAL WEATHER ROUNDUP
NATIONAL WEATHER SERVICE NEW ORLEANS LA
300 PM CDT THU AUG 27 2015

NOTE: "FAIR" INDICATES FEW OR NO CLOUDS BELOW 12,000 FEET WITH NO
      SIGNIFICANT WEATHER AND/OR OBSTRUCTIONS TO VISIBILITY.
      SKY/WX - SKY CONDITION AND SIGNIFICANT WEATHER.
      TMP - AIR TEMPERATURE.     DP    - DEWPOINT TEMPERATURE.
      RH  - RELATIVE HUMIDITY.   PRES  - PRESSURE.
      HI  - HEAT INDEX.          WCI   - WIND CHILL INDEX.

*  THESE STATIONS ARE NOT NWS OR FAA STATIONS AND ARE NOT UNDER
   NWS QUALITY CONTROL.

LAZ038-040-048-061>063-065>067-069-272100-
SOUTHEAST LOUISIANA

CITY           SKY/WX    TMP DP  RH WIND       PRES   REMARKS
N.O. AUDUBON     N/A     89  64  42 MISG        N/A
N.O. INTL ARPT MOSUNNY   85  57  38 NE9       29.98F
N.O. LAKEFRONT SUNNY     82  60  47 W6        29.99F
N.O. DOWNTOWN*   N/A     84  57  39 NW3       29.98F
RESERVE*         N/A     87  59  38 N7        29.98F
SLIDELL        SUNNY     86  61  42 NE9       29.96F
BATON ROUGE    SUNNY     87  58  37 VRB6      30.00F
BOOTHVILLE     SUNNY     84  61  45 NE8       29.98F
BELLE CHASSE   MOSUNNY   86  60  41 N9        29.97F
BOGALUSA*      NOT AVBL
GALLIANO*      CLEAR     86  57  36 MISG      29.97F
NEW ROADS*       N/A     85  57  38 N10       30.00F
GONZALES*        N/A     84  59  42 CALM      29.98F
HAMMOND*       SUNNY     91  52  25 NE9       29.99F
HOUMA*         SUNNY     84  61  45 N12       29.98F
PORT FOURCHON* CLEAR     82  61  47 NE8G16    29.97F

$$

MSZ070-080>082-272100-
SOUTHERN MISSISSIPPI

CITY           SKY/WX    TMP DP  RH WIND       PRES   REMARKS
MCCOMB         SUNNY     87  56  34 NE7G18    29.99F
GULFPORT       MOSUNNY   87  61  41 NE9       29.96F
BILOXI         MOSUNNY   85  61  44 NE8       29.95F
PASCAGOULA     PTSUNNY   85  62  46 NE7       29.95F
STENNIS ARPT*  MOSUNNY   86  52  30 NE12G17   29.97F

$$

COASTAL OBSERVATIONS
LAKE AND NEARSHORE STATIONS

STATION/POSITION TIME  TEMP    WIND        PRES    WAVE
                       AIR SEA DIR/SP/G            HT/PER
                 (UTC) (F)     (DEG/KT/KT) (MB)    (FT/S)
PASCAGOULA       1900   85     280/  2/  5   N/A
WAVELAND YACHT   1900   83     120/  2/  5   N/A
GRAND ISLE       1900   82      20/  8/ 11   N/A
SOUTHWEST PASS   1900   85      20/  9/ 12   N/A
NEW CANAL        1900   80      CALM  /  4   N/A
SHELL BEACH      1900   80      90/  2/  4   N/A

OFFSHORE STATIONS

STATION/POSITION TIME  TEMP    WIND        PRES    WAVE
                       AIR SEA DIR/SP/G            HT/PER
                 (UTC) (F)     (DEG/KT/KT) (MB)    (FT/S)
64 S DAUPHIN ISL 1950   80 87  340/  6/  8 1014.6    2/ 4

$$



USA.gov is the U.S. government's official web portal to all federal, state and local government web resources and services.